[[{"header":{"parameterUnit":"m.s-1","parameterCategory":1,"la1":30.2991,"la2":30.254,"lo1":-89.0895,"lo2":-89.0444,"dy":0.0017,"dx":0.0017,"nx":28,"ny":28,"refTime":"2024-12-11T09:00:00:Z","depth":0,"parameterNumber":2,"parameterNumberName":"U-component_of_WINDS"},"data":[0,0,0,0,0,0,0,0,0,0,0,0,0,0,0,0,0,0,0,0,0,0,0,0,0,0,0,0,0,0,0,0,0,0,0,0,0,0,0,0,0,0,0,0,0,0,0,0,0,0,0,0,0,0,0,0,0,0,2.9837,2.9837,0,2.988,2.988,2.9881,2.9821,2.9819,2.9817,2.9815,2.9859,2.9862,2.9865,0,0,0,0,0,0,0,0,0,0,0,0,0,2.9705,2.9707,2.9837,2.9837,2.9838,2.988,2.988,2.9881,2.9822,2.9819,2.9817,2.9814,2.9858,2.9862,2.9866,0,0,0,0,0,0,0,0,0,0,0,0,0,2.9756,2.9708,2.9837,2.9813,2.9812,2.9879,2.988,2.9881,2.9822,2.9819,2.9816,2.9813,2.9857,2.9862,2.9866,2.9959,0,0,2.9881,2.9883,0,0,0,0,0,0,0,0,2.9753,2.9761,2.9816,2.9815,2.9813,2.9842,2.985,2.9907,2.9823,2.9818,2.9815,2.9811,2.9856,2.9861,2.9876,2.9961,2.9963,2.9881,2.9884,2.9886,2.9887,0,0,0,0,0,0,0,2.975,2.9759,2.9854,2.9817,2.9815,2.9801,2.9805,2.986,2.9854,2.9818,2.9814,2.982,2.9855,2.9871,2.9876,2.9963,2.9881,2.9885,2.9888,2.989,3.0128,3.0132,0,0,0,0,0,0,2.9749,2.9756,2.9852,2.9855,2.9775,2.9806,2.981,2.9836,2.9854,2.9853,2.9823,2.9817,2.9865,2.9871,2.9878,2.9988,2.9886,2.989,2.9893,3.0125,3.0129,3.0133,0,0,0,0,0,0,2.9746,2.9758,2.9851,2.9805,2.9815,2.9812,2.9841,2.9838,2.9855,2.9857,2.9856,2.9841,2.9862,2.9871,2.9939,2.9989,2.9892,2.9897,3.0121,3.0126,3.0131,3.021,0,0,0,0,0,0,2.9743,2.9757,2.9792,2.9806,2.9818,2.9912,2.9844,2.9842,2.9863,2.9856,2.9874,2.9873,2.9861,2.9933,2.9944,2.9994,2.99,3.0116,3.0123,3.0129,3.0203,3.0217,3.023,0,0,0,0,0,2.9738,2.9812,2.9794,2.9806,2.9861,2.9915,2.9922,2.9905,2.9867,2.9903,2.9904,2.9873,2.9982,2.994,2.9953,3.0004,3.0113,3.0121,3.0129,3.0197,3.0215,3.0229,0,0,0,0,0,0,2.9805,2.9814,2.9794,2.9874,2.9894,2.9904,2.9948,2.9924,2.9955,2.9947,2.9926,2.9931,3.0004,3.0011,2.9965,3.0096,3.0041,3.0052,3.0089,3.0105,3.0118,3.0116,2.9904,0,0,0,0,0,2.9829,2.9871,2.9877,2.9947,2.9958,2.9952,2.9974,2.9961,2.998,2.9988,2.9994,3.0015,3.0054,3.008,3.0115,3.0204,3.0207,3.0245,3.0259,3.027,3.0279,3.0328,3.0345,3.0159,3.0159,3.0159,0,0,2.9879,2.9889,2.9917,2.9961,2.9975,3.002,2.9959,3.0009,3.0042,2.9996,3.0061,3.0067,3.0088,3.0167,3.0202,3.0175,3.0332,3.028,3.0288,3.0292,3.0338,3.0356,3.0371,3.0164,3.0163,3.0162,0,0,2.9993,3.0005,3.0065,3.0081,3.0102,3.0098,3.0113,3.0127,3.0129,3.0194,3.0161,3.02,3.0267,3.0284,3.0302,3.0424,3.0397,3.0437,3.0506,3.0554,3.0569,3.0582,3.0626,3.0643,3.0446,3.0446,3.0446,0,3.0053,3.0118,3.01,3.0152,3.0173,3.0134,3.0196,3.0211,3.0244,3.0259,3.0228,3.0313,3.0324,3.0408,3.0438,3.0453,3.047,3.0435,3.0568,3.0581,3.0593,3.0635,3.0652,3.0451,3.045,3.045,3.045,0,3.0191,3.0238,3.0284,3.0317,3.0343,3.04,3.0391,3.042,3.0404,3.0403,3.0471,3.0483,3.0522,3.054,3.0525,3.0622,3.0605,3.0571,3.0516,3.0615,3.0655,3.0671,3.0458,3.0456,3.0455,3.0454,0,0,3.0348,3.0371,3.0388,3.0404,3.0425,3.0461,3.0517,3.0554,3.058,3.0604,3.0651,3.0709,3.0679,3.0699,3.0685,3.0727,3.0825,3.0688,3.0689,3.0714,3.0934,3.096,3.0979,3.0807,3.081,3.0812,3.0933,0,3.0463,3.056,3.0545,3.0638,3.0682,3.0645,3.0694,3.0713,3.0714,3.0751,3.0752,3.0794,3.075,3.0762,3.0802,3.0805,3.0869,3.0796,3.0851,3.0853,3.0847,3.0999,3.1026,3.114,3.0948,3.0951,3.0953,0,3.061,3.0641,3.0738,3.0755,3.0772,3.0816,3.085,3.0886,3.0907,3.0905,3.0928,3.0907,3.0964,3.0908,3.0986,3.0936,3.0958,3.0963,3.0967,3.0972,3.0909,3.101,3.1175,3.1193,3.0977,3.0975,3.0973,0,3.0717,3.0782,3.0849,3.0863,3.0883,3.0915,3.0925,3.0943,3.0967,3.0997,3.1013,3.1049,3.1069,3.1098,3.1087,3.1047,3.1168,3.1111,3.1169,3.1169,3.1196,3.1195,3.1369,3.1209,3.1209,3.1208,3.1208,0,3.0847,3.0909,3.0897,3.0938,3.1007,3.099,3.1058,3.1063,3.108,3.1122,3.1093,3.1133,3.1117,3.1157,3.1149,3.1216,3.1225,3.1225,3.1222,3.1228,3.1228,3.1242,3.1235,3.1213,3.1212,3.1211,3.121,0,3.0978,3.0972,3.1043,3.1057,3.1062,3.1112,3.1123,3.1163,3.1162,3.1216,3.1228,3.1226,3.1271,3.1264,3.1314,3.1309,3.1392,3.138,3.1386,3.1383,3.1442,3.1437,3.1631,3.1657,3.148,3.1482,3.1483,0,3.1062,3.1108,3.1127,3.1154,3.1166,3.1209,3.1234,3.1219,3.1246,3.1275,3.1311,3.1354,3.1387,3.1461,3.1465,3.1504,3.1492,3.1558,3.1498,3.1502,3.1494,3.1492,3.1497,3.157,3.1572,3.1573,3.1575,0,3.1212,3.1207,3.1244,3.1281,3.1311,3.1339,3.1364,3.1387,3.1375,3.1407,3.1454,3.148,3.1531,3.1575,3.1611,3.1621,3.1597,3.1594,3.1609,3.1616,3.1618,3.1619,3.1419,3.1589,3.1588,3.1587,3.1586,3.1585,3.1322,3.1363,3.1383,3.1425,3.1443,3.1467,3.1505,3.1509,3.1548,3.1589,3.1578,3.1631,3.1652,3.1698,3.1713,3.1754,3.173,3.1752,3.1758,3.1764,3.1772,3.1611,3.176,3.176,3.176,3.1759,3.1759,0,3.1472,3.1484,3.1523,3.1559,3.1593,3.1567,3.1593,3.1624,3.167,3.1692,3.1726,3.178,3.1822,3.1829,3.187,3.1902,3.1891,3.1913,3.1911,3.1914,3.179,3.1773,3.192,3.192,3.192,3.192,3.192,3.192,3.1554,3.1621,3.1619,3.1695,3.1706,3.1758,3.1776,3.1798,3.1816,3.1877,3.1912,3.1917,3.1933,3.1975,3.2013,3.2014,3.203,3.2056,3.2053,3.1938,3.1922,3.1907,3.1891,3.206,3.206,3.2173,3.2174,3.2175]},{"header":{"parameterUnit":"m.s-1","parameterCategory":1,"la1":30.2991,"la2":30.254,"lo1":-89.0895,"lo2":-89.0444,"dy":0.0017,"dx":0.0017,"nx":28,"ny":28,"refTime":"2024-12-11T09:00:00:Z","depth":0,"parameterNumber":3,"parameterNumberName":"V-component_of_WINDS"},"data":[0,0,0,0,0,0,0,0,0,0,0,0,0,0,0,0,0,0,0,0,0,0,0,0,0,0,0,0,0,0,0,0,0,0,0,0,0,0,0,0,0,0,0,0,0,0,0,0,0,0,0,0,0,0,0,0,0,0,-4.6647,-4.6649,0,-4.6827,-4.6829,-4.6831,-4.6781,-4.6778,-4.6774,-4.6771,-4.6956,-4.6964,-4.6973,0,0,0,0,0,0,0,0,0,0,0,0,0,-4.6265,-4.6272,-4.6647,-4.665,-4.6652,-4.6827,-4.6829,-4.6831,-4.6782,-4.6778,-4.6773,-4.6769,-4.6954,-4.6963,-4.6973,0,0,0,0,0,0,0,0,0,0,0,0,0,-4.6436,-4.6275,-4.6647,-4.6648,-4.665,-4.6826,-4.6829,-4.6832,-4.6783,-4.6777,-4.6772,-4.6767,-4.695,-4.6962,-4.6975,-4.7161,0,0,-4.7013,-4.7018,0,0,0,0,0,0,0,0,-4.6427,-4.645,-4.6646,-4.6648,-4.6651,-4.6776,-4.6762,-4.6942,-4.6784,-4.6733,-4.6771,-4.6764,-4.6901,-4.6917,-4.6963,-4.717,-4.7178,-4.7014,-4.7022,-4.7027,-4.7031,0,0,0,0,0,0,0,-4.6415,-4.6442,-4.6718,-4.6649,-4.6652,-4.6641,-4.6659,-4.6796,-4.6845,-4.6737,-4.6733,-4.6755,-4.6901,-4.6951,-4.6967,-4.718,-4.7014,-4.7025,-4.7033,-4.7037,-4.7552,-4.7558,0,0,0,0,0,0,-4.6401,-4.6433,-4.6713,-4.6724,-4.6523,-4.6652,-4.6673,-4.6741,-4.6844,-4.6854,-4.676,-4.6752,-4.6932,-4.6952,-4.6973,-4.72,-4.7027,-4.7039,-4.7046,-4.7546,-4.7553,-4.756,0,0,0,0,0,0,-4.6393,-4.6426,-4.6705,-4.6578,-4.6612,-4.6664,-4.6742,-4.6748,-4.6797,-4.6861,-4.687,-4.6801,-4.6929,-4.6956,-4.7115,-4.7206,-4.7044,-4.7056,-4.7539,-4.7548,-4.7557,-4.7654,0,0,0,0,0,0,-4.6382,-4.6424,-4.6494,-4.658,-4.6619,-4.6844,-4.6748,-4.6755,-4.6819,-4.6811,-4.6902,-4.6912,-4.6927,-4.7097,-4.7128,-4.722,-4.7065,-4.7531,-4.7543,-4.7554,-4.7643,-4.7666,-4.7685,0,0,0,0,0,-4.6368,-4.6514,-4.6498,-4.6532,-4.6708,-4.6849,-4.6872,-4.6885,-4.6826,-4.6899,-4.694,-4.6909,-4.719,-4.7114,-4.7148,-4.7245,-4.7525,-4.7539,-4.7553,-4.7634,-4.7661,-4.7684,0,0,0,0,0,0,-4.6439,-4.6525,-4.6508,-4.6686,-4.6761,-4.684,-4.6932,-4.6913,-4.7007,-4.6995,-4.7008,-4.7029,-4.7193,-4.7235,-4.7147,-4.7432,-4.7349,-4.7371,-4.7399,-4.7426,-4.7446,-4.7434,-4.7076,0,0,0,0,0,-4.6475,-4.6581,-4.6651,-4.6801,-4.6839,-4.688,-4.6941,-4.6945,-4.7023,-4.7054,-4.7107,-4.7185,-4.729,-4.736,-4.7461,-4.7648,-4.7669,-4.7732,-4.7753,-4.777,-4.7789,-4.7894,-4.7924,-4.7606,-4.7605,-4.7605,0,0,-4.655,-4.6611,-4.6677,-4.6817,-4.6875,-4.6986,-4.6906,-4.7027,-4.711,-4.7073,-4.7227,-4.7269,-4.7356,-4.7531,-4.7611,-4.7571,-4.7881,-4.7788,-4.7801,-4.7811,-4.7911,-4.7941,-4.7968,-4.7615,-4.7613,-4.7612,0,0,-4.6746,-4.6801,-4.6934,-4.6994,-4.7083,-4.7109,-4.714,-4.7224,-4.725,-4.7405,-4.738,-4.7479,-4.7661,-4.7725,-4.7782,-4.8003,-4.7979,-4.8035,-4.8145,-4.8247,-4.8272,-4.8294,-4.8376,-4.8405,-4.8053,-4.8054,-4.8054,0,-4.6829,-4.6995,-4.7004,-4.7128,-4.7191,-4.7162,-4.7297,-4.7355,-4.7473,-4.7518,-4.7471,-4.77,-4.7756,-4.7947,-4.8002,-4.8047,-4.8086,-4.8026,-4.8267,-4.829,-4.8311,-4.8389,-4.8419,-4.806,-4.8059,-4.8059,-4.8058,0,-4.7094,-4.7209,-4.7305,-4.742,-4.7494,-4.7622,-4.7653,-4.7726,-4.7724,-4.7755,-4.7914,-4.7981,-4.8096,-4.8141,-4.814,-4.8333,-4.8306,-4.8264,-4.8181,-4.8348,-4.8421,-4.8451,-4.8069,-4.8067,-4.8065,-4.8063,0,0,-4.7339,-4.7458,-4.7493,-4.7546,-4.7643,-4.7733,-4.7861,-4.7973,-4.8037,-4.8119,-4.8228,-4.8383,-4.8345,-4.8409,-4.8415,-4.8504,-4.8678,-4.8451,-4.8453,-4.8493,-4.8898,-4.8931,-4.8966,-4.8662,-4.8668,-4.8672,-4.8892,0,-4.7545,-4.777,-4.7782,-4.7987,-4.8095,-4.807,-4.8181,-4.8254,-4.8286,-4.8383,-4.8419,-4.853,-4.847,-4.8509,-4.8596,-4.8638,-4.876,-4.8622,-4.8766,-4.8771,-4.8747,-4.9003,-4.9039,-4.9242,-4.892,-4.8925,-4.8928,0,-4.7815,-4.7906,-4.8121,-4.8205,-4.825,-4.8351,-4.8456,-4.8548,-4.863,-4.8648,-4.872,-4.8713,-4.8846,-4.8757,-4.8942,-4.8848,-4.8907,-4.8937,-4.8945,-4.8961,-4.8861,-4.9029,-4.9307,-4.9339,-4.8973,-4.897,-4.8966,0,-4.7976,-4.8152,-4.8304,-4.8349,-4.8449,-4.8521,-4.8566,-4.8643,-4.871,-4.8802,-4.8846,-4.8952,-4.9011,-4.9094,-4.9116,-4.9049,-4.9302,-4.9214,-4.9322,-4.9322,-4.9378,-4.9374,-4.9672,-4.9412,-4.9411,-4.9411,-4.941,0,-4.8205,-4.8339,-4.8378,-4.8472,-4.8621,-4.8635,-4.8782,-4.8823,-4.8892,-4.8994,-4.8978,-4.9075,-4.9097,-4.9199,-4.9217,-4.9369,-4.9395,-4.9414,-4.9418,-4.9417,-4.9415,-4.9458,-4.9446,-4.9419,-4.9417,-4.9416,-4.9414,0,-4.8411,-4.8442,-4.8606,-4.8688,-4.8711,-4.8818,-4.8889,-4.898,-4.901,-4.914,-4.9172,-4.922,-4.9339,-4.9369,-4.9511,-4.9523,-4.9703,-4.9692,-4.9676,-4.9676,-4.9783,-4.9774,-5.0121,-5.0169,-4.9875,-4.9878,-4.988,0,-4.8556,-4.8658,-4.8751,-4.8818,-4.8867,-4.8975,-4.9044,-4.9062,-4.9134,-4.9236,-4.9316,-4.9432,-4.9527,-4.9719,-4.9767,-4.9876,-4.9869,-4.9984,-4.9886,-4.9883,-4.9874,-4.9869,-4.9881,-5.0003,-5.0006,-5.0009,-5.0011,0,-4.8812,-4.8823,-4.8922,-4.9028,-4.9111,-4.9195,-4.9275,-4.9332,-4.9361,-4.9443,-4.9565,-4.9638,-4.9784,-4.9901,-5.0011,-5.0058,-5.0041,-5.0041,-5.0072,-5.0074,-5.0061,-5.0072,-4.9729,-5.0033,-5.0031,-5.0029,-5.0028,-5.0027,-4.8994,-4.9085,-4.9165,-4.9276,-4.9339,-4.9415,-4.9505,-4.9547,-4.9648,-4.9768,-4.9772,-4.9905,-4.9986,-5.0132,-5.0186,-5.0291,-5.0257,-5.0301,-5.0313,-5.0325,-5.0335,-5.0042,-5.0311,-5.031,-5.031,-5.0309,-5.0309,0,-4.9252,-4.9302,-4.9405,-4.9518,-4.9607,-4.9581,-4.9669,-4.9745,-4.9862,-4.9939,-5.0033,-5.0174,-5.0287,-5.0345,-5.0458,-5.0532,-5.0527,-5.0561,-5.0557,-5.0569,-5.0358,-5.0321,-5.0564,-5.0563,-5.0563,-5.0563,-5.0563,-5.0563,-4.9396,-4.9549,-4.9569,-4.9754,-4.9803,-4.9933,-4.9986,-5.0056,-5.0118,-5.0276,-5.037,-5.0407,-5.0477,-5.0595,-5.0699,-5.0713,-5.0757,-5.0797,-5.0807,-5.0609,-5.0584,-5.0559,-5.0524,-5.0805,-5.0806,-5.101,-5.1011,-5.1013]}]]